{"data":{"norad_id":53746,"epoch":"2026-09-20T22:44:33.139392Z","epoch_age_seconds":45346,"freshness":"FRESH","line1":"1 53746U 22107AY  26263.94760578  .00002100  00000+0  73276-4 0  9993","line2":"2 53746  53.1614  91.9803 0001148  87.5483 272.5651 15.34390858224288","mean_motion":15.34390858,"eccentricity":0.0001148,"inclination_deg":53.1614,"raan_deg":91.9803,"arg_perigee_deg":87.5483,"mean_anomaly_deg":272.5651,"bstar":7.3276e-5,"rev_number":22428,"period_min":93.848317232349,"perigee_km":461.94508071367,"apogee_km":463.51574387154,"semimajor_km":6840.8674122926,"source":"CELESTRAK","updated_at":"2026-09-21T09:00:32.990505Z"}}